CW2751 Weather Reports


Display with metric or nautical units.
time (UTC)temp
F
wind
direction
speed
MPH
gust
MPH
rain 1hr
in
rain 24hr
in
rain mn
in
humidity
%
barometer
mb
20190920083546 63 185 2.0 10.0 0.00 0.00 0.00 84 1021.1
20190920083041 63 159 4.0 10.0 0.00 0.00 0.00 84 1021.1
20190920082550 63 175 1.0 10.0 0.00 0.00 0.00 84 1021.2
20190920082040 63 186 1.0 7.0 0.00 0.00 0.00 83 1021.2
20190920081550 63 165 1.0 6.0 0.00 0.00 0.00 83 1021.2
20190920081041 63 182 2.0 4.0 0.00 0.00 0.00 82 1021.7
20190920080551 63 155 1.0 5.0 0.00 0.00 0.00 81 1021.7
20190920080041 63 148 0.0 3.0 0.00 0.00 0.00 80 1021.7
20190920075551 64 168 1.0 3.0 0.00 0.00 0.00 80 1022.0
20190920075043 64 175 0.0 6.0 0.00 0.00 0.00 79 1022.0
20190920074552 64 158 1.0 7.0 0.00 0.00 0.00 78 1022.0
20190920074042 65 137 2.0 7.0 0.00 0.00 0.00 78 1022.0
20190920073550 65 137 2.0 6.0 0.00 0.00 0.00 77 1022.0
20190920073043 66 145 0.0 7.0 0.00 0.00 0.00 76 1022.0
20190920072553 66 147 2.0 7.0 0.00 0.00 0.00 76 1022.1
20190920072042 66 154 3.0 7.0 0.00 0.00 0.00 75 1022.1
20190920071553 66 168 2.0 7.0 0.00 0.00 0.00 75 1022.1
20190920071042 66 162 1.0 7.0 0.00 0.00 0.00 74 1022.2
20190920070553 67 145 3.0 8.0 0.00 0.00 0.00 74 1022.2
20190920070041 67 183 3.0 8.0 0.00 0.00 0.00 73 1022.2
20190920065552 67 138 2.0 8.0 0.00 0.00 0.00 73 1022.4
20190920065042 67 188 4.0 8.0 0.00 0.00 0.00 72 1022.4
20190920064554 67 178 3.0 7.0 0.00 0.00 0.00 72 1022.4
20190920064043 67 172 4.0 10.0 0.00 0.00 0.00 72 1022.6
20190920063534 68 151 3.0 14.0 0.00 0.00 0.00 71 1022.6
20190920063044 67 168 4.0 14.0 0.00 0.00 0.00 71 1022.6
20190920062539 67 174 6.0 12.0 0.00 0.00 0.00 71 1022.8
20190920062049 67 192 4.0 11.0 0.00 0.00 0.00 70 1022.8
20190920061540 66 155 3.0 14.0 0.00 0.00 0.00 70 1022.8
20190920061050 66 188 2.0 15.0 0.00 0.00 0.00 69 1022.4
20190920060541 66 168 4.0 15.0 0.00 0.00 0.00 69 1022.4
20190920060051 66 183 4.0 11.0 0.00 0.00 0.00 69 1022.4
20190920055540 66 179 5.0 13.0 0.00 0.00 0.00 69 1022.5
20190920055051 66 186 5.0 13.0 0.00 0.00 0.00 69 1022.5
20190920054542 66 172 7.0 13.0 0.00 0.00 0.00 70 1022.5
20190920054052 65 190 3.0 12.0 0.00 0.00 0.00 70 1022.6
20190920053542 66 145 3.0 13.0 0.00 0.00 0.00 71 1022.6
20190920053051 66 161 4.0 13.0 0.00 0.00 0.00 71 1022.6
20190920052542 66 164 5.0 12.0 0.00 0.00 0.00 71 1022.7
20190920052054 66 175 4.0 16.0 0.00 0.00 0.00 71 1022.7
20190920051544 66 161 7.0 17.0 0.00 0.00 0.00 71 1022.7
20190920051054 66 140 6.0 17.0 0.00 0.00 0.00 71 1023.1
20190920050543 66 147 5.0 17.0 0.00 0.00 0.00 70 1023.1
20190920050053 67 157 8.0 17.0 0.00 0.00 0.00 69 1023.1
20190920045544 67 185 6.0 13.0 0.00 0.00 0.00 68 1023.1
20190920045035 68 154 4.0 14.0 0.00 0.00 0.00 66 1023.1
20190920044545 68 182 7.0 14.0 0.00 0.00 0.00 65 1023.1
20190920044034 68 155 8.0 18.0 0.00 0.00 0.00 64 1022.4
20190920043546 68 113 7.0 18.0 0.00 0.00 0.00 63 1022.4
20190920043035 68 152 7.0 18.0 0.00 0.00 0.00 62 1022.4
20190920042545 68 135 6.0 16.0 0.00 0.00 0.00 61 1022.4
20190920042042 68 147 6.0 16.0 0.00 0.00 0.00 59 1022.4
20190920041553 68 169 6.0 19.0 0.00 0.00 0.00 57 1022.4
20190920041042 68 104 6.0 19.0 0.00 0.00 0.00 56 1023.0
20190920040553 68 137 6.0 12.0 0.00 0.00 0.00 55 1023.0
20190920040043 68 186 4.0 13.0 0.00 0.00 0.00 54 1023.0
20190920035553 68 162 5.0 13.0 0.00 0.00 0.00 54 1022.7
20190920035044 68 182 5.0 11.0 0.00 0.00 0.00 53 1022.7
20190920034553 68 181 4.0 12.0 0.00 0.00 0.00 53 1022.7
20190920034042 68 181 4.0 12.0 0.00 0.00 0.00 53 1022.3
20190920033534 68 106 5.0 12.0 0.00 0.00 0.00 52 1022.3
20190920033044 68 126 4.0 10.0 0.00 0.00 0.00 52 1022.3
20190920032535 68 148 1.0 11.0 0.00 0.00 0.00 52 1021.7
20190920032045 68 144 4.0 11.0 0.00 0.00 0.00 52 1021.7
20190920031536 68 114 3.0 10.0 0.00 0.00 0.00 51 1021.7
20190920031046 68 135 3.0 11.0 0.00 0.00 0.00 51 1021.1
20190920030536 68 159 4.0 11.0 0.00 0.00 0.00 51 1021.1
20190920030046 69 126 3.0 12.0 0.00 0.00 0.00 50 1021.1
20190920025536 69 210 4.0 13.0 0.00 0.00 0.00 51 1021.1
20190920025047 69 141 5.0 13.0 0.00 0.00 0.00 50 1021.1
20190920024538 69 161 4.0 22.0 0.00 0.00 0.00 51 1021.1
20190920024048 68 102 7.0 22.0 0.00 0.00 0.00 51 1020.4
20190920023537 68 175 5.0 18.0 0.00 0.00 0.00 52 1020.4
20190920023048 69 172 8.0 25.0 0.00 0.00 0.00 52 1020.4
20190920022539 69 185 8.0 25.0 0.00 0.00 0.00 51 1019.5
20190920022050 70 152 9.0 24.0 0.00 0.00 0.00 48 1019.5
20190920021543 71 162 8.0 24.0 0.00 0.00 0.00 45 1019.5
20190920021034 72 158 7.0 19.0 0.00 0.00 0.00 42 1018.7
20190920020545 72 134 5.0 22.0 0.00 0.00 0.00 41 1018.7
20190920020036 73 150 12.0 22.0 0.00 0.00 0.00 40 1018.7
20190920015546 74 133 12.0 29.0 0.00 0.00 0.00 37 1016.9
20190920015036 75 141 10.0 31.0 0.00 0.00 0.00 35 1016.9
20190920014548 76 133 15.0 31.0 0.00 0.00 0.00 33 1016.9
20190920014038 76 150 9.0 33.0 0.00 0.00 0.00 33 1017.1
20190920013550 78 135 18.0 33.0 0.00 0.00 0.00 29 1017.1
20190920013040 78 174 9.0 31.0 0.00 0.00 0.00 28 1017.1
20190920012551 77 203 12.0 38.0 0.00 0.00 0.00 29 1017.7
20190920012041 75 183 15.0 38.0 0.00 0.00 0.00 35 1017.7
20190920011553 75 147 19.0 36.0 0.00 0.00 0.00 36 1017.7
20190920011044 74 162 14.0 31.0 0.00 0.00 0.00 39 1019.5
20190920010535 73 189 16.0 33.0 0.00 0.00 0.00 43 1019.5
20190920010046 73 144 15.0 37.0 0.00 0.00 0.00 43 1019.5
20190920005537 73 179 16.0 35.0 0.00 0.00 0.00 42 1019.7
20190920005047 72 128 11.0 35.0 0.00 0.00 0.00 45 1019.7
20190920004537 73 172 12.0 28.0 0.00 0.00 0.00 46 1019.7
20190920004048 73 138 10.0 30.0 0.00 0.00 0.00 44 1019.9
20190920003539 74 192 14.0 27.0 0.00 0.00 0.00 42 1019.9
20190920003050 74 165 11.0 21.0 0.00 0.00 0.00 42 1019.9
20190920002540 72 203 9.0 21.0 0.00 0.00 0.00 48 1020.2
20190920002035 71 164 8.0 24.0 0.00 0.00 0.00 54 1020.2
20190920001545 72 178 11.0 28.0 0.00 0.00 0.00 56 1020.2
20190920001035 73 219 16.0 27.0 0.00 0.00 0.00 52 1020.3
20190920000547 75 229 11.0 35.0 0.00 0.00 0.00 47 1020.3
20190920000037 77 141 20.0 39.0 0.00 0.00 0.00 41 1020.3
20190919235548 82 164 18.0 39.0 0.00 0.00 0.00 38 1019.7
20190919235038 84 138 10.0 25.0 0.00 0.00 0.00 39 1019.7
20190919234549 84 150 8.0 19.0 0.00 0.00 0.00 38 1019.7
20190919234039 84 176 7.0 19.0 0.00 0.00 0.00 37 1019.6
20190919233549 84 159 9.0 17.0 0.00 0.00 0.00 37 1019.6
20190919233039 85 172 5.0 16.0 0.00 0.00 0.00 37 1019.6
20190919232550 85 145 6.0 16.0 0.00 0.00 0.00 37 1018.5
20190919232041 85 148 3.0 12.0 0.00 0.00 0.00 36 1018.5
20190919231553 85 175 6.0 17.0 0.00 0.00 0.00 35 1018.5
20190919231043 86 145 5.0 17.0 0.00 0.00 0.00 35 1018.7
20190919230552 86 172 6.0 16.0 0.00 0.00 0.00 34 1018.7
20190919230043 86 144 7.0 16.0 0.00 0.00 0.00 34 1018.7
20190919225534 86 130 4.0 17.0 0.00 0.00 0.00 34 1019.1
20190919225045 86 166 6.0 17.0 0.00 0.00 0.00 33 1019.1
20190919224536 87 152 5.0 17.0 0.00 0.00 0.00 32 1019.1
20190919224046 87 175 7.0 17.0 0.00 0.00 0.00 32 1019.3
20190919223537 87 178 9.0 17.0 0.00 0.00 0.00 32 1019.3
20190919223047 87 183 4.0 16.0 0.00 0.00 0.00 32 1019.3
20190919222538 87 175 6.0 17.0 0.00 0.00 0.00 31 1019.4
20190919222034 87 157 8.0 17.0 0.00 0.00 0.00 32 1019.4
20190919221544 87 142 7.0 16.0 0.00 0.00 0.00 32 1019.4
20190919221035 87 116 7.0 21.0 0.00 0.00 0.00 32 1019.3
20190919220546 87 190 7.0 21.0 0.00 0.00 0.00 32 1019.3
20190919220036 88 165 7.0 17.0 0.00 0.00 0.00 33 1019.3
20190919215548 88 202 6.0 19.0 0.00 0.00 0.00 33 1019.2
20190919215038 88 202 2.0 19.0 0.00 0.00 0.00 32 1019.2
20190919214548 88 178 8.0 16.0 0.00 0.00 0.00 32 1019.2
20190919214039 88 200 7.0 17.0 0.00 0.00 0.00 30 1019.0
20190919213550 88 179 5.0 17.0 0.00 0.00 0.00 30 1019.0
20190919213041 89 164 7.0 17.0 0.00 0.00 0.00 28 1019.0
20190919212552 89 185 7.0 17.0 0.00 0.00 0.00 28 1019.3
20190919212042 90 138 4.0 20.0 0.00 0.00 0.00 29 1019.3
20190919211534 90 172 6.0 20.0 0.00 0.00 0.00 28 1019.3
20190919211044 90 172 4.0 16.0 0.00 0.00 0.00 27 1019.5
20190919210535 90 165 5.0 18.0 0.00 0.00 0.00 28 1019.5
20190919210046 91 130 9.0 20.0 0.00 0.00 0.00 27 1019.5
20190919205536 91 147 5.0 20.0 0.00 0.00 0.00 28 1019.8
20190919205047 90 166 6.0 17.0 0.00 0.00 0.00 29 1019.8
20190919204538 90 154 6.0 17.0 0.00 0.00 0.00 28 1019.8
20190919204048 89 199 8.0 17.0 0.00 0.00 0.00 31 1020.1
20190919203539 90 174 7.0 17.0 0.00 0.00 0.00 30 1020.1
20190919203051 89 159 4.0 15.0 0.00 0.00 0.00 31 1020.1
20190919202541 89 155 6.0 19.0 0.00 0.00 0.00 31 1020.4
20190919202035 89 155 7.0 19.0 0.00 0.00 0.00 32 1020.4
20190919201546 89 168 6.0 18.0 0.00 0.00 0.00 32 1020.4
20190919201038 89 169 6.0 18.0 0.00 0.00 0.00 32 1020.6
20190919200549 89 179 7.0 18.0 0.00 0.00 0.00 31 1020.6
20190919200039 89 193 8.0 18.0 0.00 0.00 0.00 30 1020.6
20190919195550 89 165 6.0 13.0 0.00 0.00 0.00 31 1020.7
20190919195041 89 169 7.0 13.0 0.00 0.00 0.00 29 1020.7
20190919194551 89 183 4.0 19.0 0.00 0.00 0.00 31 1020.7
20190919194040 88 137 3.0 19.0 0.00 0.00 0.00 28 1021.1
20190919193551 88 202 4.0 13.0 0.00 0.00 0.00 31 1021.1
20190919193043 88 200 2.0 12.0 0.00 0.00 0.00 29 1021.1
20190919192534 88 131 4.0 12.0 0.00 0.00 0.00 28 1021.2
20190919192045 88 161 4.0 11.0 0.00 0.00 0.00 27 1021.2
20190919191534 88 171 3.0 10.0 0.00 0.00 0.00 28 1021.2
20190919191045 88 126 4.0 10.0 0.00 0.00 0.00 27 1021.4
20190919190535 87 127 2.0 11.0 0.00 0.00 0.00 30 1021.4
20190919190047 87 188 4.0 11.0 0.00 0.00 0.00 30 1021.4
20190919185538 87 141 3.0 11.0 0.00 0.00 0.00 33 1022.0
20190919185052 86 198 4.0 12.0 0.00 0.00 0.00 31 1022.0
20190919184542 86 199 6.0 12.0 0.00 0.00 0.00 31 1022.0
20190919184033 86 190 4.0 12.0 0.00 0.00 0.00 34 1022.1
20190919183543 86 128 2.0 11.0 0.00 0.00 0.00 37 1022.1
20190919183034 86 171 3.0 10.0 0.00 0.00 0.00 35 1022.1
20190919182545 86 174 2.0 12.0 0.00 0.00 0.00 36 1022.2
20190919182040 86 114 6.0 12.0 0.00 0.00 0.00 35 1022.2
20190919181551 85 147 2.0 7.0 0.00 0.00 0.00 35 1022.2
20190919181042 84 174 1.0 6.0 0.00 0.00 0.00 34 1021.8
20190919180533 83 174 0.0 4.0 0.00 0.00 0.00 37 1021.8
20190919180045 83 172 2.0 4.0 0.00 0.00 0.00 38 1021.8
20190919175536 82 172 1.0 4.0 0.00 0.00 0.00 38 1022.2
20190919175046 82 172 0.0 10.0 0.00 0.00 0.00 40 1022.2
20190919174536 81 169 3.0 10.0 0.00 0.00 0.00 41 1022.2
20190919174047 81 183 1.0 7.0 0.00 0.00 0.00 41 1022.3
20190919173538 81 192 0.0 5.0 0.00 0.00 0.00 43 1022.3
20190919173050 80 189 1.0 7.0 0.00 0.00 0.00 43 1022.3
20190919172542 80 195 1.0 7.0 0.00 0.00 0.00 45 1022.7
20190919172053 79 222 3.0 6.0 0.00 0.00 0.00 45 1022.7
20190919171544 79 230 2.0 4.0 0.00 0.00 0.00 45 1022.7
20190919171035 79 248 1.0 7.0 0.00 0.00 0.00 49 1022.8
20190919170545 78 248 1.0 7.0 0.00 0.00 0.00 48 1022.8
20190919170036 77 247 2.0 7.0 0.00 0.00 0.00 51 1022.8
20190919165547 77 247 1.0 5.0 0.00 0.00 0.00 50 1023.1
20190919165037 76 247 2.0 5.0 0.00 0.00 0.00 52 1023.1
20190919164548 75 247 2.0 4.0 0.00 0.00 0.00 53 1023.1
20190919164038 75 247 0.0 7.0 0.00 0.00 0.00 54 1023.4
20190919163548 74 247 2.0 7.0 0.00 0.00 0.00 55 1023.4
20190919163038 74 278 1.0 7.0 0.00 0.00 0.00 58 1023.4
20190919162548 73 279 4.0 8.0 0.00 0.00 0.00 57 1022.9
20190919162042 73 272 4.0 8.0 0.00 0.00 0.00 59 1022.9
20190919161553 73 298 4.0 7.0 0.00 0.00 0.00 58 1022.9
20190919161043 72 250 2.0 7.0 0.00 0.00 0.00 59 1023.5
20190919160553 72 253 3.0 7.0 0.00 0.00 0.00 60 1023.5
20190919160044 71 244 3.0 7.0 0.00 0.00 0.00 62 1023.5
20190919155551 71 244 2.0 8.0 0.00 0.00 0.00 63 1023.0
20190919155041 70 247 3.0 8.0 0.00 0.00 0.00 63 1023.0
20190919154551 70 255 0.0 7.0 0.00 0.00 0.00 63 1023.0
20190919154041 69 270 0.0 7.0 0.00 0.00 0.00 64 1023.2
20190919153552 69 270 5.0 8.0 0.00 0.00 0.00 65 1023.2
20190919153044 68 265 5.0 8.0 0.00 0.00 0.00 66 1023.2
20190919152535 68 233 4.0 8.0 0.00 0.00 0.00 66 1023.1
20190919152046 67 233 0.0 6.0 0.00 0.00 0.00 68 1023.1
20190919151535 67 240 2.0 8.0 0.00 0.00 0.00 71 1023.1
20190919151045 66 246 5.0 9.0 0.00 0.00 0.00 71 1023.3
20190919150536 66 271 1.0 7.0 0.00 0.00 0.00 71 1023.3
20190919150046 66 185 2.0 7.0 0.00 0.00 0.00 72 1023.3
20190919145537 65 233 0.0 8.0 0.00 0.00 0.00 73 1023.5
20190919145047 65 236 4.0 8.0 0.00 0.00 0.00 74 1023.5
20190919144537 65 220 1.0 5.0 0.00 0.00 0.00 74 1023.5
20190919144047 65 220 1.0 5.0 0.00 0.00 0.00 75 1023.3
20190919143537 64 219 0.0 8.0 0.00 0.00 0.00 77 1023.3
20190919143048 64 206 0.0 8.0 0.00 0.00 0.00 77 1023.3
20190919142538 63 193 1.0 6.0 0.00 0.00 0.00 79 1023.3
20190919142048 63 196 1.0 7.0 0.00 0.00 0.00 79 1023.3
20190919141542 63 189 2.0 6.0 0.00 0.00 0.00 80 1023.3
20190919141052 63 212 1.0 6.0 0.00 0.00 0.00 82 1022.9
20190919140543 62 186 1.0 6.0 0.00 0.00 0.00 82 1022.9
20190919140053 62 182 3.0 6.0 0.00 0.00 0.00 83 1022.9
20190919135543 61 186 1.0 6.0 0.00 0.00 0.00 84 1022.4
20190919135053 61 185 2.0 6.0 0.00 0.00 0.00 84 1022.4
20190919134545 60 188 2.0 7.0 0.00 0.00 0.00 85 1022.4
20190919134034 60 190 3.0 7.0 0.00 0.00 0.00 87 1022.5
20190919133544 60 183 2.0 6.0 0.00 0.00 0.00 88 1022.5
20190919133053 59 181 1.0 6.0 0.00 0.00 0.00 89 1022.5
20190919132543 59 182 2.0 6.0 0.00 0.00 0.00 90 1022.3
20190919132053 58 174 0.0 6.0 0.00 0.00 0.00 90 1022.3
20190919131543 58 158 1.0 6.0 0.00 0.00 0.00 91 1022.3
20190919131034 58 151 2.0 5.0 0.00 0.00 0.00 92 1022.1
20190919130544 57 144 2.0 5.0 0.00 0.00 0.00 92 1022.1
20190919130035 57 124 1.0 3.0 0.00 0.00 0.00 92 1022.1
20190919125545 57 118 0.0 3.0 0.00 0.00 0.00 92 1022.1
20190919125034 57 107 1.0 2.0 0.00 0.00 0.00 91 1022.1
20190919124546 57 107 0.0 2.0 0.00 0.00 0.00 91 1022.1
20190919124036 56 107 0.0 0.0 0.00 0.00 0.00 91 1022.1
20190919123547 56 107 0.0 0.0 0.00 0.00 0.00 91 1022.1
20190919123037 56 107 0.0 0.0 0.00 0.00 0.00 91 1022.1
20190919122547 56 107 0.0 0.0 0.00 0.00 0.00 91 1022.0
20190919122037 56 107 0.0 0.0 0.00 0.00 0.00 90 1022.0
20190919121547 57 107 0.0 0.0 0.00 0.00 0.00 90 1022.0
20190919121041 56 107 0.0 0.0 0.00 0.00 0.00 90 1022.2
20190919120552 57 107 0.0 0.0 0.00 0.00 0.00 90 1022.2
20190919120041 57 107 0.0 0.0 0.00 0.00 0.00 90 1022.2
20190919115551 57 107 0.0 1.0 0.00 0.00 0.00 90 1022.2
20190919115043 57 107 0.0 1.0 0.00 0.00 0.00 89 1022.2
20190919114553 57 107 0.0 1.0 0.00 0.00 0.00 89 1022.2
20190919114044 57 107 0.0 1.0 0.00 0.00 0.00 89 1022.3
20190919113554 57 107 0.0 0.0 0.00 0.00 0.00 89 1022.3
20190919113044 57 107 0.0 2.0 0.00 0.00 0.00 89 1022.3
20190919112553 57 107 0.0 2.0 0.00 0.00 0.00 89 1022.4
20190919112044 57 107 0.0 1.0 0.00 0.00 0.00 89 1022.4
20190919111536 57 107 0.0 2.0 0.00 0.00 0.00 89 1022.4
20190919111046 57 107 0.0 3.0 0.00 0.00 0.00 89 1021.9
20190919110535 57 107 1.0 3.0 0.00 0.00 0.00 89 1021.9
20190919110045 57 107 1.0 3.0 0.00 0.00 0.00 89 1021.9
20190919105536 58 107 0.0 2.0 0.00 0.00 0.00 89 1022.4
20190919105046 58 107 0.0 2.0 0.00 0.00 0.00 89 1022.4
20190919104536 58 107 0.0 2.0 0.00 0.00 0.00 88 1022.4
20190919104047 58 107 1.0 3.0 0.00 0.00 0.00 88 1022.4
20190919103537 58 107 0.0 3.0 0.00 0.00 0.00 88 1022.4
20190919103048 58 107 0.0 3.0 0.00 0.00 0.00 88 1022.4
20190919102537 58 107 1.0 3.0 0.00 0.00 0.00 88 1022.6
20190919102047 59 107 1.0 4.0 0.00 0.00 0.00 88 1022.6
20190919101537 59 107 1.0 6.0 0.00 0.00 0.00 88 1022.6
20190919101046 59 107 1.0 6.0 0.00 0.00 0.00 88 1022.6
20190919100540 59 152 1.0 5.0 0.00 0.00 0.00 88 1022.6
20190919100051 59 152 0.0 5.0 0.00 0.00 0.00 87 1022.6
20190919095541 59 162 0.0 1.0 0.00 0.00 0.00 87 1022.4
20190919095051 59 162 0.0 3.0 0.00 0.00 0.00 87 1022.4
20190919094540 60 162 0.0 3.0 0.00 0.00 0.00 87 1022.4
20190919094050 60 162 0.0 3.0 0.00 0.00 0.00 87 1022.6
20190919093540 60 162 0.0 3.0 0.00 0.00 0.00 87 1022.6
20190919093050 60 162 0.0 5.0 0.00 0.00 0.00 87 1022.6
20190919092541 60 176 0.0 5.0 0.00 0.00 0.00 87 1022.7
20190919092052 60 169 2.0 5.0 0.00 0.00 0.00 87 1022.7
20190919091543 60 152 2.0 4.0 0.00 0.00 0.00 88 1022.7
20190919091053 60 154 0.0 4.0 0.00 0.00 0.00 87 1023.0
20190919090542 60 154 1.0 3.0 0.00 0.00 0.00 87 1023.0
20190919090034 59 154 0.0 1.0 0.00 0.00 0.00 87 1023.0
20190919085544 59 154 0.0 0.0 0.00 0.00 0.00 87 1023.2
20190919085033 59 154 0.0 1.0 0.00 0.00 0.00 86 1023.2
20190919084544 59 154 0.0 2.0 0.00 0.00 0.00 86 1023.2
20190919084054 59 154 0.0 2.0 0.00 0.00 0.00 86 1023.1